Martinsburg, WV

4:13 AM EDT on April 30, 2017 (GMT -0400)
Eastern W Va Regional-Shepherd

Weather History for KMRB - March, 2012

Change the Weather History Date:

Tuesday, March 27, 2012

  Actual Average Record
Temperature  
Mean Temperature 43 °F 46 °F  
Max Temperature 56 °F 57 °F 86 °F (1939)
Min Temperature 29 °F 35 °F 16 °F (2014)
Degree Days  
Heating Degree Days 22 19  
Month to date heating degree days 329 641  
Since 1 July heating degree days 3570 4597  
Cooling Degree Days 0 0  
Month to date cooling degree days 8 0  
Year to date cooling degree days 8 0  
Moisture  
Dew Point 13 °F    
Average Humidity 43    
Maximum Humidity 70    
Minimum Humidity 16    
Precipitation  
Precipitation 0.00 in 0.12 in 1.14 in (1994)
Month to date precipitation 1.13 3.02  
Year to date precipitation 6.01 7.80  
Sea Level Pressure  
Sea Level Pressure 30.29 in    
Wind  
Wind Speed 4 mph (NNW)    
Max Wind Speed 15 mph    
Max Gust Speed 23 mph    
Visibility 10 miles    
Events      
T = Trace of Precipitation, MM = Missing Value Source: NWS Daily Summary

Daily Weather History Graph

Daily Weather History Graph

Search for Another Location

Airport or City:

Trip Planner

Search our weather history database for the weather conditions in past years. The results will help you decide how hot, cold, wet, or windy it might be!

Date:

Astronomy

Mar. 27, 2012 Rise Set
Actual Time 7:03 AM EDT 7:31 PM EDT
Civil Twilight 6:36 AM EDT 7:58 PM EDT
Nautical Twilight 6:04 AM EDT 8:30 PM EDT
Astronomical Twilight 5:32 AM EDT 9:02 PM EDT
Moon 9:34 AM EDT (3/27) No Moon Set
Length of Visible Light 13h 21m
Length of Day
12h 27m
Waxing Crescent, 22% of the Moon is Illuminated
Mar 27
Waxing Crescent
Mar 30
First Quarter
Apr 6
Full
Apr 13
Last Quarter
Apr 21
New

Hourly Weather History & Observations

Time (EDT) Temp. Windchill Dew Point Humidity Pressure Visibility Wind Dir Wind Speed Gust Speed Precip Events Conditions
12:53 AM 37.9 °F 29.2 °F 9.0 °F 30% 30.27 in 10.0 mi NNW 15.0 mph 23.0 mph N/A   Clear
1:53 AM 36.0 °F 28.0 °F 10.0 °F 34% 30.28 in 10.0 mi NNW 11.5 mph - N/A   Clear
2:53 AM 35.1 °F 30.1 °F 10.9 °F 37% 30.30 in 10.0 mi North 5.8 mph - N/A   Clear
3:53 AM 34.0 °F 27.2 °F 12.0 °F 40% 30.30 in 10.0 mi NNW 8.1 mph - N/A   Clear
4:53 AM 33.1 °F 26.1 °F 12.9 °F 43% 30.32 in 10.0 mi NNW 8.1 mph - N/A   Clear
5:53 AM 30.9 °F 22.8 °F 12.0 °F 46% 30.34 in 10.0 mi NW 9.2 mph - N/A   Clear
6:53 AM 30.0 °F 23.2 °F 12.9 °F 49% 30.36 in 10.0 mi WNW 6.9 mph - N/A   Clear
7:53 AM 32.0 °F 25.6 °F 10.9 °F 42% 30.38 in 10.0 mi NNW 6.9 mph - N/A   Clear
8:53 AM 35.1 °F 27.4 °F 10.0 °F 35% 30.38 in 10.0 mi NW 10.4 mph - N/A   Clear
9:53 AM 36.0 °F - 9.0 °F 33% 30.39 in 10.0 mi Calm Calm - N/A   Clear
10:53 AM 39.9 °F 35.8 °F 10.0 °F 29% 30.38 in 10.0 mi NNW 5.8 mph - N/A   Clear
11:53 AM 43.0 °F - 10.0 °F 26% 30.37 in 10.0 mi Calm Calm - N/A   Clear
12:53 PM 46.9 °F - 7.0 °F 20% 30.36 in 10.0 mi Calm Calm - N/A   Clear
1:53 PM 50.0 °F - 8.1 °F 18% 30.33 in 10.0 mi ENE 5.8 mph - N/A   Clear
2:53 PM 51.1 °F - 10.0 °F 19% 30.30 in 10.0 mi Variable 3.5 mph - N/A   Clear
3:53 PM 52.0 °F - 10.0 °F 19% 30.29 in 10.0 mi Calm Calm - N/A   Clear
4:53 PM 54.0 °F - 9.0 °F 17% 30.26 in 10.0 mi Calm Calm - N/A   Clear
5:53 PM 53.1 °F - 14.0 °F 21% 30.24 in 10.0 mi SSE 8.1 mph - N/A   Clear
6:53 PM 51.1 °F - 15.1 °F 24% 30.24 in 10.0 mi SSE 6.9 mph - N/A   Clear
7:53 PM 46.0 °F - 19.0 °F 34% 30.22 in 10.0 mi Calm Calm - N/A   Clear
8:53 PM 43.0 °F - 21.9 °F 43% 30.21 in 10.0 mi Calm Calm - N/A   Clear
9:53 PM 41.0 °F - 21.0 °F 45% 30.20 in 10.0 mi Calm Calm - N/A   Clear
10:53 PM 39.9 °F - 26.1 °F 58% 30.19 in 10.0 mi Calm Calm - N/A   Clear
11:53 PM 37.9 °F - 28.9 °F 70% 30.16 in 10.0 mi Calm Calm - N/A   Clear